User: anonymous   Login
Location: Unspecified
(0.0000°N, 0.0000°E)
Time: 19:05:11
(UTC+00:00)
Language:

DSCS III B-4 - Orbit

View from above orbital plane
View from above orbital plane
View from above satellite
View from above satellite

Ground track
Ground track

The orbit data is extracted from the following two-line orbital elements,

1 16116U 85092B   17073.78322586 0.00000000  00000-0  00000-0 0    01
2 16116  15.2028  15.0770 0003595 319.6860  40.2993  0.98981388    01
Epoch (UTC): 14 March 2017 18:47:50
Eccentricity: 0.0003595
inclination: 15.2028°
perigee height: 36136 km
apogee height: 36167 km
right ascension of ascending node: 15.0770°
argument of perigee: 319.6860°
revolutions per day: 0.98981388
mean anomaly at epoch: 40.2993°
orbit number at epoch: 0

The dashed part of the orbit path shows where the satellite is in the earth's shadow,  

DLR